Terug naar catalogus

IRIDIUM 44

ActiefCommunicatiePO
NORAD 25078·PAYLOAD·🇺🇸 United States

Gelanceerd Dec 8, 1997 vanaf Taiyuan Satellite Launch Center

Loading…

Volgende Passages (komende 24 uur)

TLE

VersSource: Space-Track

Epoch: Sep 14, 2026, 08:56 UTC

1 25078U 97077B   26257.37237266  .00000252  00000-0  72742-4 0  9995
2 25078  86.3974  29.4799 0002132  39.9572 320.1784 14.40613050509085

Volg IRIDIUM 44 in realtime met AllMySat

Download on the App Store